Simultaneous Nadir Overpasses (SNOs) Predictions

Prediction of SNOs between GOES-16 and NPP Satellite Orbit:

Table of predicted SNOs for the next 14.0 days since TLE Epoch: 5/24/2017
Index Date Time (GOES-16) GOES-16 Lat,Lon NPP Lat,Lon Distance(km) Time Diff (sec)
1 05/24/2017 19:29:47 -0.00, -89.48 -0.45, -91.45 225.32 80
2 05/25/2017 19:13:42 -0.00, -89.48 0.57, -86.92 291.04 80
3 05/27/2017 07:35:31 -0.00, -89.49 0.58, -92.20 308.00 80
4 05/28/2017 07:14:06 -0.01, -89.49 -0.44, -87.67 208.26 80
5 05/29/2017 19:36:01 0.01, -89.47 -0.80, -92.96 397.90 80
6 05/30/2017 19:19:57 0.01, -89.48 0.23, -88.43 118.88 80
7 06/01/2017 07:41:45 -0.01, -89.50 0.92, -93.70 478.90 80
8 06/02/2017 07:20:21 -0.02, -89.51 -0.10, -89.18 38.17 80
9 06/04/2017 19:23:32 0.02, -89.51 -0.11, -89.94 49.58 80
10 06/05/2017 19:07:27 0.02, -89.52 0.92, -85.41 468.09 80
11 06/07/2017 07:29:16 -0.03, -89.56 0.23, -90.68 128.61 80




NCC Satellite Simultaneous Nadir Overpasses (SNOs) Prediction Service
